Location: Bailleul
(50.3375°N, 2.8513°E)
Time: 20:18:07
(UTC+00:00)

Cosmos 1666 Rocket - Pass Details

Date: 19 April 2021
Orbit: 604 x 633 km, 82.5° (Epoch: 17 May)

Event Time Altitude Azimuth Distance (km) Brightness Sun altitude
Rises 22:52:53 0° 351° (N) 2,942 8.3 -27.0°
Reaches altitude 10° 22:55:09 10° 353° (N) 2,027 7.2 -27.1°
Enters shadow 22:58:49 56° 18° (NNE) 758 4.1 -27.2°
